Location: *
(45.1961°N, 1.9694°E)
Time: 00:40:19
(UTC+00:00)

Cosmos 1937 Rocket - Pass Details

Date: 25 August 2019
Orbit: 747 x 780 km, 74.0° (Epoch: 23 October)

Event Time Altitude Azimuth Distance (km) Brightness Sun altitude
Rises 20:07:08 0° 191° (S) 3,239 6.5 -14.4°
Reaches altitude 10° 20:09:31 10° 189° (S) 2,320 5.8 -14.7°
Maximum altitude 20:14:45 67° 107° (ESE) 843 3.5 -15.5°
Drops below altitude 10° 20:20:02 10° 26° (NNE) 2,342 6.1 -16.3°
Sets 20:22:26 0° 24° (NNE) 3,274 6.9 -16.6°
